1484578800.62,50854,6.38,72688.0,-17.85,-20.15,-19.99,0,*69
1484578801.85,50855,6.31,72684.0,-17.87,-20.15,-20.05,0,*65
1484578803.11,50856,6.38,72688.3,-17.85,-20.19,-20.05,0,*68
1484578804.39,50857,6.38,72688.5,-17.85,-20.15,-20.15,0,*64
1484578805.67,50858,6.38,72690.0,-17.85,-20.19,-20.15,0,*67
1484578806.92,50859,6.38,72686.3,-17.85,-20.19,-19.99,0,*68
1484578808.18,50860,6.38,72686.8,-17.85,-20.19,-20.05,0,*6D
1484578809.41,50861,6.38,72688.3,-17.85,-20.29,-20.05,0,*6F
1484578810.67,50862,6.38,72692.0,-17.85,-20.19,-19.99,0,*60
1484578811.93,50863,6.38,72688.0,-17.85,-20.19,-20.05,0,*6E
1484578813.2,50864,6.38,72690.5,-17.85,-20.19,-20.15,0,*68
1484578814.47,50865,6.38,72688.5,-17.87,-20.19,-20.19,0,*67
1484578815.71,50866,6.38,72688.0,-17.89,-20.25,-20.09,0,*64
1484578816.98,50867,6.38,72688.8,-17.85,-20.35,-20.15,0,*65
1484578818.27,50868,6.38,72690.8,-17.89,-20.35,-20.19,0,*6A
1484578819.54,50869,6.38,72690.5,-17.85,-20.19,-20.15,0,*65
1484578820.78,50870,6.38,72690.5,-17.87,-20.29,-20.19,0,*60
1484578822.01,50871,6.38,72688.8,-17.87,-20.29,-20.15,0,*6D
1484578823.27,50872,6.38,72690.5,-17.87,-20.35,-20.19,0,*6F
1484578824.53,50873,6.38,72690.0,-17.89,-20.35,-20.25,0,*6F
1484578825.79,50874,6.38,72688.3,-17.89,-20.35,-20.25,0,*68
1484578827.04,50875,6.38,72690.5,-17.89,-20.39,-20.25,0,*65
1484578828.3,50876,6.38,72686.8,-17.89,-20.35,-20.25,0,*6A
1484578829.56,50877,6.38,72688.8,-17.87,-20.19,-20.15,0,*68
1484578830.84,50878,6.38,72690.0,-17.89,-20.35,-20.19,0,*6B
1484578832.11,50879,6.38,72688.8,-17.93,-20.35,-20.25,0,*6E
1484578833.35,50880,6.38,72690.3,-17.93,-20.39,-20.25,0,*64
1484578834.62,50881,6.38,72692.0,-17.93,-20.39,-20.19,0,*6A
1484578835.9,50882,6.38,72688.3,-17.93,-20.35,-20.19,0,*65
1484578837.17,50883,6.38,72688.0,-17.93,-20.35,-20.25,0,*6B
1484578838.43,50884,6.38,72690.5,-17.93,-20.35,-20.25,0,*6C
1484578839.7,50885,6.38,72690.0,-17.93,-20.39,-20.35,0,*60
1484578840.94,50886,6.38,72690.3,-17.93,-20.39,-20.25,0,*62
1484578842.19,50887,6.38,72692.3,-17.95,-20.53,-20.39,0,*64
1484578843.46,50888,6.38,72688.0,-17.93,-20.49,-20.25,0,*6B
1484578844.68,50889,6.38,72688.8,-17.95,-20.43,-20.29,0,*6A
1484578845.93,50890,6.31,72686.0,-17.95,-20.53,-20.39,0,*62
1484578847.16,50891,6.38,72692.3,-17.95,-20.43,-20.39,0,*62
1484578848.43,50892,6.31,72688.3,-17.93,-20.53,-20.39,0,*66
1484578849.68,50893,6.38,72692.3,-17.95,-20.53,-20.39,0,*61
1484578850.91,50894,6.38,72690.3,-17.95,-20.59,-20.39,0,*6C
1484578852.16,50895,6.38,72688.3,-17.95,-20.53,-20.43,0,*6A
1484578853.4,50896,6.38,72688.5,-17.95,-20.53,-20.43,0,*69
1484578854.65,50897,6.38,72688.5,-17.95,-20.53,-20.43,0,*68
1484578855.94,50898,6.38,72690.3,-17.93,-20.53,-20.35,0,*60
1484578857.17,50899,6.38,72692.5,-17.95,-20.59,-20.43,0,*6C
1484578858.4,50900,6.38,72692.0,-17.95,-20.59,-20.39,0,*60
1484578859.63,50901,6.38,72692.5,-17.95,-20.59,-20.39,0,*61
1484578860.87,50902,6.38,72692.0,-17.95,-20.53,-20.43,0,*65
1484578862.12,50903,6.38,72690.5,-17.95,-20.59,-20.53,0,*6F
1484578863.4,50904,6.38,72688.0,-17.95,-20.53,-20.53,0,*62
1484578864.67,50905,6.38,72688.8,-17.97,-20.53,-20.43,0,*60
1484578865.95,50906,6.38,72688.3,-17.97,-20.59,-20.53,0,*68
1484578867.17,50907,6.38,72690.0,-17.99,-20.63,-20.59,0,*64
1484578868.46,50908,6.38,72692.8,-17.93,-20.49,-20.53,0,*63
1484578869.69,50909,6.38,72688.8,-17.99,-20.59,-20.43,0,*68
1484578870.92,50910,6.38,72694.3,-17.99,-20.63,-20.43,0,*69
1484578872.17,50911,6.38,72690.3,-17.97,-20.59,-20.39,0,*62
1484578873.42,50912,6.38,72690.0,-17.99,-20.63,-20.49,0,*61
1484578874.68,50913,6.38,72694.0,-17.99,-20.59,-20.49,0,*69
1484578875.95,50914,6.38,72690.8,-17.97,-20.53,-20.43,0,*60
1484578877.22,50915,6.38,72688.8,-17.97,-20.53,-20.39,0,*6C
1484578878.48,50916,6.38,72688.8,-17.99,-20.59,-20.49,0,*6C
1484578879.73,50917,6.38,72690.0,-17.99,-20.63,-20.49,0,*64
1484578880.98,50918,6.38,72690.5,-17.99,-20.63,-20.49,0,*6B
1484578882.25,50919,6.38,72694.8,-17.97,-20.53,-20.43,0,*6D
1484578883.48,50920,6.38,72688.5,-17.99,-20.59,-20.43,0,*63
1484578884.74,50921,6.38,72688.5,-17.99,-20.59,-20.49,0,*68
1484578885.96,50922,6.38,72690.3,-17.99,-20.63,-20.43,0,*68
1484578887.2,50923,6.38,72690.0,-18.01,-20.73,-20.43,0,*66
1484578888.45,50924,6.38,72690.8,-18.01,-20.63,-20.59,0,*6B
1484578889.7,50925,6.38,72690.0,-18.01,-20.63,-20.59,0,*6A
1484578890.94,50926,6.38,72688.3,-18.01,-20.63,-20.63,0,*60
1484578892.22,50927,6.38,72688.3,-18.05,-20.69,-20.53,0,*6C
1484578893.49,50928,6.31,72688.5,-18.05,-20.69,-20.53,0,*63
1484578894.77,50929,6.38,72690.8,-18.01,-20.63,-20.49,0,*67
1484578896.02,50930,6.38,72688.3,-18.05,-20.69,-20.63,0,*69
1484578897.27,50931,6.38,72692.0,-18.05,-20.69,-20.63,0,*68
1484578898.54,50932,6.38,72688.5,-18.05,-20.79,-20.63,0,*6A
1484578899.81,50933,6.38,72694.8,-18.05,-20.79,-20.63,0,*6B
1484578901.06,50934,6.38,72690.8,-18.01,-20.73,-20.63,0,*62
1484578902.33,50935,6.38,72690.8,-18.05,-20.79,-20.63,0,*6D
1484578903.58,50936,6.38,72694.0,-18.05,-20.69,-20.69,0,*65
1484578904.83,50937,6.31,72688.3,-18.05,-20.69,-20.63,0,*6E
1484578906.08,50938,6.38,72690.8,-18.07,-20.79,-20.63,0,*62
1484578907.32,50939,6.38,72690.0,-18.05,-20.69,-20.69,0,*6A
1484578908.6,50940,6.38,72690.8,-18.05,-20.79,-20.63,0,*6F
1484578909.85,50941,6.38,72692.3,-18.05,-20.69,-20.63,0,*6F
1484578911.1,50942,6.38,72688.3,-18.07,-20.83,-20.63,0,*6A
1484578912.35,50943,6.38,72690.3,-18.07,-20.79,-20.63,0,*6E
1484578913.58,50944,6.31,72690.5,-18.07,-20.69,-20.63,0,*68
1484578914.83,50945,6.38,72690.3,-18.07,-20.69,-20.53,0,*6A
1484578916.08,50946,6.38,72694.3,-18.07,-20.69,-20.53,0,*69
1484578917.35,50947,6.38,72690.3,-18.09,-20.73,-20.53,0,*6D
1484578918.63,50948,6.31,72690.8,-18.07,-20.79,-20.53,0,*66
1484578919.88,50949,6.38,72692.0,-18.07,-20.69,-20.53,0,*66
1484578921.13,50950,6.38,72694.3,-18.09,-20.73,-20.59,0,*61
1484578922.4,50951,6.38,72688.3,-18.09,-20.73,-20.53,0,*6A
1484578923.64,50952,6.38,72690.8,-18.09,-20.69,-20.59,0,*68
1484578924.89,50953,6.38,72692.0,-18.09,-20.69,-20.59,0,*69
1484578926.14,50954,6.38,72688.0,-18.09,-20.73,-20.59,0,*65
1484578927.41,50955,6.38,72692.3,-18.09,-20.73,-20.53,0,*6E
1484578928.65,50956,6.38,72690.3,-18.09,-20.73,-20.59,0,*67
1484578929.92,50957,6.38,72688.3,-18.09,-20.73,-20.53,0,*6C
1484578931.17,50958,6.38,72694.5,-18.09,-20.69,-20.59,0,*62
1484578932.42,50959,6.38,72688.8,-18.09,-20.69,-20.59,0,*63
1484578933.69,50960,6.38,72692.8,-18.09,-20.73,-20.53,0,*68
1484578934.94,50961,6.38,72690.0,-18.09,-20.69,-20.59,0,*68
1484578936.21,50962,6.38,72694.5,-18.09,-20.69,-20.53,0,*61
1484578937.46,50963,6.38,72694.3,-18.09,-20.69,-20.59,0,*6A
1484578938.73,50964,6.38,72692.3,-18.09,-20.73,-20.53,0,*6C
1484578940.0,50965,6.38,72690.0,-18.09,-20.69,-20.53,0,*66
1484578941.27,50966,6.38,72694.0,-18.09,-20.69,-20.53,0,*65
1484578942.52,50967,6.38,72690.5,-18.09,-20.69,-20.43,0,*65
1484578943.79,50968,6.38,72694.8,-18.09,-20.69,-20.53,0,*6B
1484578945.04,50969,6.38,72692.8,-18.11,-20.53,-20.43,0,*6B
1484578946.29,50970,6.38,72688.3,-18.09,-20.69,-20.43,0,*63
1484578947.51,50971,6.38,72692.0,-18.11,-20.69,-20.43,0,*6B
1484578948.74,50972,6.38,72692.0,-18.11,-20.73,-20.39,0,*6E
1484578949.97,50973,6.38,72688.8,-18.11,-20.59,-20.43,0,*6A
1484578951.22,50974,6.38,72692.3,-18.09,-20.59,-20.43,0,*64
1484578952.45,50975,6.38,72692.5,-18.11,-20.59,-20.43,0,*6C
1484578953.7,50976,6.31,72690.8,-18.11,-20.53,-20.43,0,*65
1484578954.93,50977,6.38,72694.3,-18.11,-20.59,-20.43,0,*6E
1484578956.17,50978,6.38,72692.5,-18.11,-20.59,-20.43,0,*61
1484578957.4,50979,6.38,72692.8,-18.11,-20.43,-20.39,0,*66
1484578958.62,50980,6.38,72692.8,-18.11,-20.73,-20.39,0,*63
1484578959.9,50981,6.38,72688.3,-18.15,-20.63,-20.49,0,*60
1484578961.13,50982,6.38,72692.8,-18.11,-20.59,-20.43,0,*64
1484578962.38,50983,6.38,72696.3,-18.11,-20.53,-20.43,0,*6F
1484578963.62,50984,6.38,72694.5,-18.15,-20.73,-20.43,0,*6E
1484578964.85,50985,6.38,72692.5,-18.11,-20.59,-20.43,0,*63
1484578966.1,50986,6.38,72694.0,-18.15,-20.63,-20.43,0,*6D
1484578967.38,50987,6.38,72694.0,-18.15,-20.59,-20.49,0,*6F
1484578968.66,50988,6.31,72686.5,-18.15,-20.59,-20.49,0,*60
1484578969.91,50989,6.38,72690.5,-18.15,-20.63,-20.59,0,*69
1484578971.15,50990,6.38,72692.0,-18.17,-20.69,-20.53,0,*63
1484578972.4,50991,6.38,72692.5,-18.17,-20.63,-20.49,0,*63
1484578973.65,50992,6.38,72692.8,-18.15,-20.59,-20.43,0,*61
1484578974.89,50993,6.38,72690.8,-18.17,-20.69,-20.53,0,*60
1484578976.19,50994,6.38,72692.3,-18.15,-20.49,-20.49,0,*6C
1484578977.43,50995,6.38,72694.3,-18.17,-20.63,-20.53,0,*6C
1484578978.71,50996,6.38,72692.3,-18.15,-20.63,-20.49,0,*66
1484578979.95,50997,6.38,72692.5,-18.17,-20.63,-20.49,0,*65
1484578981.22,50998,6.38,72692.8,-18.17,-20.53,-20.53,0,*62
1484578982.46,50999,6.38,72690.8,-18.17,-20.63,-20.53,0,*60
1484578983.7,51000,6.38,72694.8,-18.17,-20.69,-20.49,0,*69
1484578984.94,51001,6.38,72692.0,-18.17,-20.69,-20.53,0,*63
1484578986.19,51002,6.31,72690.5,-18.17,-20.69,-20.49,0,*6B
1484578987.43,51003,6.38,72692.0,-18.17,-20.63,-20.53,0,*6B
1484578988.67,51004,6.38,72694.8,-18.17,-20.63,-20.49,0,*67
1484578989.95,51005,6.38,72692.0,-18.19,-20.63,-20.53,0,*63
1484578991.24,51006,6.38,72690.0,-18.19,-20.53,-20.53,0,*63
1484578992.52,51007,6.38,72692.8,-18.19,-20.63,-20.49,0,*6A
1484578993.79,51008,6.31,72690.8,-18.19,-20.63,-20.49,0,*65
1484578995.06,51009,6.38,72692.8,-18.19,-20.63,-20.53,0,*6F
1484578996.29,51010,6.38,72688.8,-18.21,-20.69,-20.63,0,*65
1484578997.56,51011,6.38,72694.0,-18.19,-20.69,-20.53,0,*6C
1484578998.83,51012,6.38,72692.5,-18.19,-20.63,-20.49,0,*6E
1484579000.1,51013,6.38,72694.0,-18.19,-20.69,-20.49,0,*65
1484579001.38,51014,6.38,72692.0,-18.19,-20.69,-20.49,0,*62
1484579002.63,51015,6.38,72690.5,-18.21,-20.63,-20.53,0,*69
1484579003.87,51016,6.38,72688.5,-18.21,-20.69,-20.53,0,*60
1484579005.12,51017,6.38,72690.8,-18.21,-20.63,-20.49,0,*60
1484579006.37,51018,6.38,72694.0,-18.21,-20.63,-20.53,0,*64
1484579007.62,51019,6.38,72692.8,-18.21,-20.63,-20.53,0,*65
1484579008.87,51020,6.38,72692.5,-18.21,-20.69,-20.49,0,*6E
1484579010.12,51021,6.38,72688.5,-18.21,-20.69,-20.49,0,*6F
1484579011.4,51022,6.38,72690.3,-18.21,-20.53,-20.53,0,*6E
1484579012.66,51023,6.38,72692.3,-18.19,-20.69,-20.53,0,*6D
1484579013.91,51024,6.38,72692.3,-18.21,-20.63,-20.53,0,*6B
1484579015.19,51025,6.38,72688.3,-18.21,-20.53,-20.53,0,*69
1484579016.44,51026,6.38,72692.3,-18.21,-20.63,-20.53,0,*69
1484579017.71,51027,6.38,72692.0,-18.21,-20.53,-20.49,0,*60
1484579018.99,51028,6.38,72692.0,-18.21,-20.53,-20.49,0,*6F
1484579020.24,51029,6.38,72692.5,-18.21,-20.63,-20.49,0,*6D
1484579021.51,51030,6.38,72694.5,-18.23,-20.69,-20.53,0,*66
1484579022.76,51031,6.38,72688.3,-18.27,-20.69,-20.59,0,*69
1484579024.01,51032,6.38,72694.5,-18.23,-20.69,-20.59,0,*6E
1484579025.29,51033,6.38,72694.3,-18.27,-20.69,-20.53,0,*61
1484579026.54,51034,6.38,72694.3,-18.23,-20.69,-20.59,0,*68
1484579027.81,51035,6.38,72690.3,-18.27,-20.73,-20.53,0,*6C
1484579029.06,51036,6.38,72692.8,-18.23,-20.69,-20.59,0,*6A
1484579030.31,51037,6.38,72692.3,-18.27,-20.73,-20.59,0,*64
1484579031.55,51038,6.31,72686.8,-18.27,-20.73,-20.59,0,*6B
1484579032.8,51039,6.38,72688.8,-18.27,-20.73,-20.59,0,*6A
1484579034.05,51040,6.38,72688.0,-18.27,-20.73,-20.59,0,*64
1484579035.32,51041,6.38,72692.0,-18.27,-20.83,-20.69,0,*69
1484579036.56,51042,6.38,72692.5,-18.27,-20.73,-20.69,0,*65
1484579037.81,51043,6.38,72690.5,-18.27,-20.73,-20.59,0,*67
1484579039.08,51044,6.31,72690.3,-18.27,-20.83,-20.69,0,*6C
1484579040.35,51045,6.38,72690.3,-18.27,-20.83,-20.69,0,*6D
1484579041.63,51046,6.38,72692.3,-18.27,-20.83,-20.73,0,*65
1484579042.9,51047,6.38,72688.0,-18.27,-20.83,-20.73,0,*64
1484579044.15,51048,6.38,72688.3,-18.27,-20.89,-20.73,0,*61
1484579045.42,51049,6.38,72688.0,-18.27,-20.83,-20.69,0,*61
1484579046.7,51050,6.38,72690.5,-18.27,-20.83,-20.73,0,*62
1484579047.92,51051,6.38,72688.0,-18.29,-20.89,-20.73,0,*67
1484579049.17,51052,6.38,72692.3,-18.29,-20.89,-20.79,0,*6E
1484579050.4,51053,6.38,72688.8,-18.29,-20.89,-20.89,0,*60
1484579051.62,51054,6.38,72688.5,-18.29,-20.89,-20.73,0,*62
1484579052.86,51055,6.38,72690.0,-18.29,-20.93,-20.79,0,*62
1484579054.13,51056,6.31,72688.0,-18.31,-20.89,-20.79,0,*63
1484579055.38,51057,6.38,72692.0,-18.31,-20.89,-20.73,0,*68
1484579056.63,51058,6.31,72688.3,-18.31,-20.89,-20.73,0,*67
1484579057.86,51059,6.38,72692.3,-18.29,-20.89,-20.73,0,*6F
1484579059.11,51060,6.38,72692.8,-18.31,-20.89,-20.73,0,*6C
1484579060.35,51061,6.38,72688.8,-18.29,-20.79,-20.73,0,*6B
1484579061.6,51062,6.38,72692.0,-18.31,-20.89,-20.73,0,*6E
1484579062.87,51063,6.38,72694.5,-18.31,-20.79,-20.73,0,*60
1484579064.14,51064,6.38,72690.8,-18.31,-20.79,-20.73,0,*67
1484579065.41,51065,6.38,72694.3,-18.31,-20.79,-20.73,0,*66
1484579066.65,51066,6.38,72694.0,-18.29,-20.79,-20.73,0,*6C
1484579067.92,51067,6.38,72690.0,-18.31,-20.79,-20.73,0,*64
1484579069.19,51068,6.38,72694.0,-18.31,-20.79,-20.63,0,*6A
1484579070.43,51069,6.38,72690.0,-18.31,-20.73,-20.73,0,*60
1484579071.7,51070,6.38,72690.3,-18.31,-20.79,-20.63,0,*63
1484579072.94,51071,6.38,72688.3,-18.31,-20.73,-20.63,0,*68
1484579074.2,51072,6.38,72692.5,-18.31,-20.89,-20.59,0,*67
1484579075.44,51073,6.38,72696.3,-18.31,-20.73,-20.59,0,*63
1484579076.71,51074,6.38,72690.5,-18.31,-20.79,-20.63,0,*67
1484579077.96,51075,6.38,72692.3,-18.31,-20.89,-20.63,0,*69
1484579079.2,51076,6.38,72694.0,-18.33,-20.79,-20.69,0,*6D
1484579080.47,51077,6.38,72688.5,-18.31,-20.79,-20.73,0,*65
1484579081.74,51078,6.38,72692.0,-18.31,-20.79,-20.73,0,*6A
1484579083.01,51079,6.31,72688.5,-18.31,-20.79,-20.63,0,*6A
1484579084.25,51080,6.38,72692.0,-18.33,-20.83,-20.69,0,*61
1484579085.49,51081,6.38,72690.5,-18.33,-20.83,-20.69,0,*60
1484579086.73,51082,6.38,72688.3,-18.33,-20.83,-20.69,0,*63
1484579087.97,51083,6.38,72688.8,-18.31,-20.73,-20.69,0,*6F
1484579089.21,51084,6.38,72692.8,-18.33,-20.79,-20.69,0,*60
1484579090.43,51085,6.38,72688.8,-18.33,-20.73,-20.59,0,*68
1484579091.67,51086,6.38,72692.8,-18.33,-20.79,-20.63,0,*68
1484579092.91,51087,6.38,72690.0,-18.33,-20.79,-20.69,0,*63
1484579094.15,51088,6.31,72686.8,-18.33,-20.79,-20.69,0,*6C
1484579095.39,51089,6.38,72692.0,-18.33,-20.79,-20.63,0,*67
1484579096.66,51090,6.38,72694.8,-18.31,-20.79,-20.59,0,*64
1484579097.9,51091,6.38,72692.3,-18.33,-20.83,-20.69,0,*61
1484579099.14,51092,6.38,72688.8,-18.33,-20.79,-20.69,0,*67
1484579100.41,51093,6.38,72692.3,-18.33,-20.83,-20.53,0,*6A
1484579101.68,51094,6.38,72690.8,-18.35,-20.79,-20.63,0,*6D
1484579102.96,51095,6.38,72692.5,-18.39,-20.83,-20.69,0,*6F
1484579104.2,51096,6.38,72688.8,-18.33,-20.83,-20.63,0,*6C
1484579105.44,51097,6.38,72690.3,-18.39,-20.73,-20.69,0,*62
1484579106.74,51098,6.38,72690.5,-18.35,-20.79,-20.53,0,*62
1484579107.98,51099,6.38,72688.8,-18.33,-20.79,-20.63,0,*66
1484579109.26,51100,6.38,72690.3,-18.39,-20.83,-20.73,0,*69
1484579110.53,51101,6.38,72690.8,-18.35,-20.79,-20.63,0,*60
1484579111.81,51102,6.31,72690.5,-18.39,-20.83,-20.73,0,*6B
1484579113.08,51103,6.38,72690.0,-18.35,-20.79,-20.63,0,*62
1484579114.33,51104,6.38,72694.3,-18.39,-20.89,-20.73,0,*67
1484579115.6,51105,6.31,72692.3,-18.39,-20.83,-20.69,0,*67
1484579116.85,51106,6.38,72694.3,-18.35,-20.69,-20.63,0,*66
1484579118.13,51107,6.38,72694.8,-18.39,-20.83,-20.73,0,*6E
1484579119.39,51108,6.38,72692.5,-18.35,-20.79,-20.69,0,*63
1484579120.65,51109,6.38,72694.5,-18.39,-20.89,-20.73,0,*6A
1484579121.92,51110,6.38,72694.8,-18.39,-20.83,-20.69,0,*63
1484579123.19,51111,6.31,72690.3,-18.39,-20.83,-20.69,0,*62
1484579124.43,51112,6.38,72694.0,-18.33,-20.79,-20.69,0,*6E
1484579125.68,51113,6.38,72692.0,-18.39,-20.89,-20.69,0,*6A
1484579126.95,51114,6.38,72692.0,-18.39,-20.83,-20.69,0,*67
1484579128.22,51115,6.38,72692.5,-18.35,-20.79,-20.63,0,*65
1484579129.47,51116,6.38,72692.0,-18.39,-20.73,-20.59,0,*69
1484579130.74,51117,6.38,72694.8,-18.39,-20.83,-20.69,0,*64
1484579131.99,51118,6.38,72696.8,-18.41,-20.79,-20.73,0,*6A
1484579133.23,51119,6.38,72692.3,-18.41,-20.79,-20.73,0,*6B
1484579134.5,51120,6.38,72696.0,-18.43,-20.79,-20.73,0,*63
1484579135.74,51121,6.38,72694.0,-18.41,-20.79,-20.73,0,*60
1484579136.98,51122,6.38,72694.5,-18.43,-20.73,-20.73,0,*6B
1484579138.2,51123,6.38,72694.8,-18.41,-20.73,-20.63,0,*69
1484579139.47,51124,6.38,72692.0,-18.43,-20.79,-20.73,0,*67
1484579140.71,51125,6.38,72694.3,-18.43,-20.73,-20.63,0,*6D
1484579141.95,51126,6.38,72692.3,-18.41,-20.79,-20.63,0,*66
1484579143.17,51127,6.38,72694.5,-18.41,-20.73,-20.63,0,*6D
1484579144.41,51128,6.38,72696.0,-18.43,-20.73,-20.63,0,*60
1484579145.63,51129,6.38,72692.5,-18.41,-20.73,-20.59,0,*6A
1484579146.85,51130,6.38,72694.8,-18.41,-20.73,-20.63,0,*6B
1484579148.09,51131,6.38,72694.8,-18.43,-20.73,-20.63,0,*68
1484579149.36,51132,6.38,72692.5,-18.43,-20.79,-20.63,0,*61
1484579150.63,51133,6.38,72692.5,-18.43,-20.79,-20.63,0,*60
1484579151.9,51134,6.38,72694.8,-18.43,-20.79,-20.63,0,*67
1484579153.17,51135,6.31,72692.0,-18.43,-20.79,-20.63,0,*66
1484579154.44,51136,6.38,72696.3,-18.43,-20.79,-20.63,0,*65
1484579155.69,51137,6.38,72694.8,-18.43,-20.73,-20.63,0,*6E
1484579156.96,51138,6.31,72694.3,-18.43,-20.79,-20.63,0,*6B
1484579158.2,51139,6.31,72692.8,-18.43,-20.73,-20.63,0,*60
1484579159.47,51140,6.31,72692.5,-18.47,-20.79,-20.63,0,*60
1484579160.74,51141,6.38,72698.3,-18.47,-20.79,-20.69,0,*6B
1484579161.99,51142,6.38,72694.5,-18.43,-20.89,-20.63,0,*69
1484579163.24,51143,6.38,72696.3,-18.43,-20.89,-20.63,0,*68
1484579164.51,51144,6.38,72698.8,-18.47,-20.83,-20.69,0,*6B
1484579165.81,51145,6.38,72692.8,-18.47,-20.79,-20.83,0,*6B
1484579167.1,51146,6.38,72696.8,-18.47,-20.83,-20.83,0,*6D
1484579168.39,51147,6.38,72692.5,-18.47,-20.83,-20.79,0,*69
1484579169.66,51148,6.38,72692.5,-18.43,-20.79,-20.73,0,*6D
1484579170.91,51149,6.38,72692.8,-18.43,-20.93,-20.63,0,*69
1484579172.15,51150,6.38,72692.3,-18.49,-20.93,-20.79,0,*60
1484579173.42,51151,6.38,72694.8,-18.49,-20.99,-20.79,0,*6B
1484579174.63,51152,6.31,72694.0,-18.49,-20.93,-20.69,0,*63
1484579175.88,51153,6.38,72698.0,-18.49,-20.83,-20.69,0,*63
1484579177.12,51154,6.38,72696.0,-18.49,-20.93,-20.79,0,*64
1484579178.33,51155,6.31,72692.8,-18.49,-20.93,-20.69,0,*64
1484579179.58,51156,6.38,72698.8,-18.49,-20.83,-20.69,0,*66
1484579180.82,51157,6.38,72696.3,-18.49,-20.79,-20.63,0,*68
1484579182.08,51158,6.31,72694.8,-18.49,-20.79,-20.79,0,*6C
1484579183.33,51159,6.38,72696.3,-18.49,-20.83,-20.69,0,*69
1484579184.57,51160,6.38,72698.0,-18.49,-20.79,-20.69,0,*66
1484579185.81,51161,6.38,72694.0,-18.49,-20.83,-20.69,0,*62
1484579187.08,51162,6.38,72694.0,-18.49,-20.83,-20.79,0,*60
1484579188.3,51163,6.38,72694.5,-18.53,-20.89,-20.73,0,*6A
1484579189.52,51164,6.38,72692.8,-18.49,-20.93,-20.69,0,*66
1484579190.76,51165,6.38,72694.8,-18.49,-20.83,-20.69,0,*66
1484579192.03,51166,6.38,72692.8,-18.49,-20.83,-20.79,0,*64
1484579193.27,51167,6.38,72694.0,-18.49,-20.83,-20.69,0,*64
1484579194.55,51168,6.38,72694.8,-18.53,-20.83,-20.83,0,*64
1484579195.79,51169,6.38,72696.8,-18.53,-20.89,-20.83,0,*6F
1484579197.04,51170,6.38,72692.5,-18.53,-20.99,-20.73,0,*69
1484579198.31,51171,6.38,72698.3,-18.53,-20.99,-20.83,0,*67
1484579199.58,51172,6.38,72694.3,-18.53,-20.99,-20.83,0,*64
1484579200.82,51173,6.38,72694.8,-18.53,-20.89,-20.89,0,*6E
1484579202.09,51174,6.38,72694.5,-18.55,-20.99,-20.89,0,*6E
1484579203.34,51175,6.38,72698.5,-18.53,-20.99,-20.73,0,*6C
1484579204.59,51176,6.38,72696.5,-18.53,-20.89,-20.83,0,*61
1484579205.84,51177,6.38,72696.8,-18.53,-20.89,-20.83,0,*60
1484579207.09,51178,6.38,72692.5,-18.53,-20.83,-20.89,0,*6F
1484579208.36,51179,6.31,72694.8,-18.55,-20.89,-20.83,0,*68
1484579209.61,51180,6.38,72698.3,-18.55,-20.89,-20.73,0,*61
1484579210.91,51181,6.38,72694.5,-18.55,-21.03,-20.83,0,*6C
1484579212.15,51182,6.38,72692.5,-18.53,-20.89,-20.83,0,*6A
1484579213.43,51183,6.38,72692.5,-18.55,-20.89,-20.83,0,*6D
1484579214.67,51184,6.38,72692.8,-18.53,-20.89,-20.83,0,*6C
1484579215.95,51185,6.38,72692.0,-18.55,-20.83,-20.89,0,*6B
1484579217.23,51186,6.31,72690.8,-18.55,-20.99,-20.89,0,*63
1484579218.5,51187,6.38,72696.5,-18.55,-20.89,-20.83,0,*69
1484579219.75,51188,6.38,72692.8,-18.55,-20.89,-20.89,0,*6C
1484579221.03,51189,6.38,72698.5,-18.55,-20.89,-20.83,0,*67
1484579222.32,51190,6.38,72694.0,-18.55,-20.99,-20.83,0,*6E
1484579223.62,51191,6.38,72698.5,-18.55,-20.99,-20.83,0,*6F
1484579224.91,51192,6.38,72692.3,-18.55,-20.99,-20.83,0,*6C
1484579226.19,51193,6.38,72696.3,-18.55,-20.99,-20.89,0,*67
1484579227.48,51194,6.38,72696.5,-18.55,-21.03,-20.83,0,*68
1484579228.72,51195,6.31,72694.8,-18.57,-20.93,-20.79,0,*66
1484579230.02,51196,6.38,72696.5,-18.55,-20.99,-20.83,0,*68
1484579231.31,51197,6.38,72694.8,-18.55,-20.99,-20.83,0,*69
1484579232.58,51198,6.38,72696.0,-18.55,-20.89,-20.83,0,*67
1484579233.83,51199,6.38,72696.8,-18.55,-20.89,-20.73,0,*69
1484579235.1,51200,6.31,72694.0,-18.55,-21.03,-20.73,0,*69
1484579236.33,51201,6.38,72694.3,-18.57,-20.89,-20.73,0,*69
1484579237.62,51202,6.38,72696.0,-18.55,-20.99,-20.83,0,*66
1484579238.89,51203,6.31,72690.5,-18.57,-21.03,-20.79,0,*62
1484579240.16,51204,6.38,72692.8,-18.55,-20.99,-20.69,0,*64
1484579241.45,51205,6.31,72694.8,-18.55,-20.99,-20.83,0,*61
1484579242.72,51206,6.38,72692.5,-18.57,-21.03,-20.79,0,*67
1484579243.97,51207,6.38,72696.0,-18.57,-21.03,-20.89,0,*69
1484579245.21,51208,6.31,72692.5,-18.57,-20.93,-20.79,0,*61
1484579246.45,51209,6.38,72696.3,-18.57,-20.93,-20.79,0,*60
1484579247.74,51210,6.38,72698.8,-18.59,-21.03,-20.79,0,*6E
1484579248.97,51211,6.38,72696.8,-18.57,-20.93,-20.89,0,*66
1484579250.23,51212,6.38,72696.5,-18.55,-20.89,-20.89,0,*6C
1484579251.5,51213,6.38,72696.5,-18.55,-20.99,-20.89,0,*6C
1484579252.74,51214,6.38,72696.8,-18.57,-20.93,-20.79,0,*6C
1484579254.0,51215,6.38,72692.8,-18.57,-21.03,-20.89,0,*6A
1484579255.26,51216,6.38,72694.5,-18.57,-21.03,-20.79,0,*66
1484579256.49,51217,6.38,72698.8,-18.57,-20.93,-20.89,0,*60
1484579257.75,51218,6.38,72696.8,-18.57,-21.03,-20.89,0,*67
1484579258.97,51219,6.38,72696.5,-18.57,-20.93,-20.89,0,*6E
1484579260.21,51220,6.38,72698.8,-18.57,-20.93,-20.79,0,*6B
1484579261.46,51221,6.38,72698.0,-18.59,-20.93,-20.89,0,*6B
1484579262.71,51222,6.38,72696.0,-18.59,-20.93,-20.93,0,*63
1484579263.96,51223,6.31,72694.0,-18.59,-20.93,-20.89,0,*69
1484579265.25,51224,6.38,72694.5,-18.59,-21.03,-20.79,0,*69
1484579266.52,51225,6.38,72696.3,-18.63,-20.99,-20.93,0,*67
1484579267.78,51226,6.38,72692.5,-18.59,-20.93,-20.79,0,*63
1484579269.02,51227,6.31,72692.8,-18.63,-21.09,-20.93,0,*6D
1484579270.29,51228,6.38,72694.3,-18.63,-21.09,-20.83,0,*63
1484579271.56,51229,6.31,72694.0,-18.59,-20.89,-20.79,0,*67
1484579272.85,51230,6.38,72698.8,-18.63,-20.99,-20.99,0,*69
1484579274.12,51231,6.38,72696.5,-18.63,-20.99,-20.93,0,*62
1484579275.39,51232,6.38,72694.0,-18.63,-20.99,-20.93,0,*61
1484579276.69,51233,6.38,72696.3,-18.63,-20.99,-20.83,0,*61
1484579277.96,51234,6.38,72698.0,-18.63,-20.99,-20.93,0,*67
1484579279.23,51235,6.38,72696.0,-18.59,-20.89,-20.79,0,*6A
1484579280.52,51236,6.38,72698.5,-18.63,-20.99,-20.83,0,*64
1484579281.79,51237,6.38,72698.0,-18.65,-20.99,-20.99,0,*68
1484579283.06,51238,6.38,72698.0,-18.63,-20.93,-20.79,0,*65
1484579284.32,51239,6.38,72698.0,-18.63,-20.93,-20.83,0,*61
1484579285.58,51240,6.38,72698.3,-18.65,-20.99,-20.89,0,*69
1484579286.85,51241,6.38,72696.0,-18.65,-20.99,-20.83,0,*62
1484579288.1,51242,6.38,72698.8,-18.65,-20.99,-20.89,0,*6B
1484579289.36,51243,6.31,72692.8,-18.65,-21.03,-20.89,0,*68
1484579290.63,51244,6.31,72694.8,-18.65,-20.99,-20.83,0,*67
1484579291.88,51245,6.38,72698.0,-18.65,-21.03,-20.89,0,*6E
1484579293.14,51246,6.38,72696.5,-18.65,-21.03,-20.89,0,*6D
1484579294.41,51247,6.38,72696.3,-18.67,-20.99,-20.89,0,*6C
1484579295.64,51248,6.38,72696.5,-18.65,-20.89,-20.89,0,*60
1484579296.93,51249,6.31,72694.8,-18.67,-21.03,-20.83,0,*6A
1484579298.19,51250,6.38,72694.0,-18.65,-21.03,-20.89,0,*6A
1484579299.46,51251,6.38,72694.5,-18.67,-20.99,-20.89,0,*6B
1484579300.75,51252,6.38,72696.0,-18.67,-21.03,-20.83,0,*60
1484579302.02,51253,6.31,72692.8,-18.65,-20.99,-20.83,0,*61